Regional Weather Roundup
Issued by NWS

Home | Current Version | Previous Version | Graphics & Text | Print | Product List | Glossary On
Versions: 1 2 3 4 5 6 7 8 9 10 11 12 13 14 15 16 17 18 19 20 21 22 23 24 25 26 27 28 29 30 31 32 33 34 35 36 37 38 39 40 41 42 43 44 45 46 47 48 49 50
000
ASUS43 KMPX 300410
RWRMN
WEATHER ROUNDUP FOR MINNESOTA
NATIONAL WEATHER SERVICE TWIN CITIES/CHANHASSEN MN
1100 PM CDT SUN MAY 29 2016


NOTE: "FAIR" INDICATES FEW OR NO CLOUDS BELOW 12,000 FEET WITH NO
SIGNIFICANT WEATHER AND/OR OBSTRUCTIONS TO VISIBILITY. N/A MEANS
CURRENT SKY AND/OR WEATHER CONDITIONS ARE NOT AVAILABLE.

MNZ060>063-068>070-300500-
   Twin Cities Metro

CITY           SKY/WX    TMP DP  RH WIND       PRES   REMARKS
TWIN CITIES    CLEAR     68  57  68 W3        29.98R
ST PAUL        CLEAR     63  59  87 CALM      29.98R
CRYSTAL        CLEAR     63  57  81 CALM      29.96R
BLAINE         CLEAR     63  61  94 CALM      29.98R
EDEN PRAIRIE   CLEAR     67  57  70 W5        29.97R
SOUTH ST PAUL  CLEAR     65  57  75 SW3       29.97R
LAKE ELMO      FAIR      59  59 100 CALM      29.99R FOG
$$
MNZ001>005-007-008-013>017-022>024-027-028-300500-
   Northwest Minnesota

CITY           SKY/WX    TMP DP  RH WIND       PRES   REMARKS
BEMIDJI        CLEAR     54  50  87 CALM      29.94S
HALLOCK        CLEAR     57  54  88 S3        29.90F
ROSEAU         CLEAR     59  52  77 W3        29.91S
WARROAD        CLEAR     55  52  88 W3        29.91S
THIEF RVR FALL CLEAR     57  52  82 CALM      29.94S
CROOKSTON      CLEAR     63  54  72 CALM      29.93S
FOSSTON        CLEAR     54  52  94 CALM      29.95S
DETROIT LAKES  CLEAR     59  52  77 CALM      29.97S
MOORHEAD       CLEAR     64  50  59 CALM      29.94S
PARK RAPIDS    CLEAR     59  52  77 CALM      29.95S
MAHNOMEN       FAIR      60  51  74 SE5       29.94S
$$
MNZ006-009>011-018-025>026-300500-
   North Central Minnesota

CITY           SKY/WX    TMP DP  RH WIND       PRES   REMARKS
BAUDETTE       CLEAR     53  50  89 W3        29.91R
FLAG ISLAND    CLEAR     61  54  77 CALM      29.89S
INTL FALLS     CLEAR     50  50 100 CALM      29.89S
WASKISH        CLEAR     63  55  77 W6        29.92S
BIG FORK       CLEAR     52  48  87 CALM      29.93S FOG
LONGVILLE      CLEAR     52  52 100 CALM      29.95S
GRAND RAPIDS   CLEAR     54  52  93 S5        29.95S
CRANE LAKE     MOCLDY    48  48 100 CALM      29.91S
ORR            CLEAR     54  52  94 CALM      29.89S
COOK           PTCLDY    55  54  94 CALM      29.92S
WALKER         FAIR      52  50  93 CALM      29.95S
$$
MNZ012-019>021-037-300500-
   Northeast Minnesota

CITY           SKY/WX    TMP DP  RH WIND       PRES   REMARKS
DULUTH         CLEAR     54  50  86 W9        29.93S
ELY            PTCLDY    54  52  94 CALM      29.91R
HIBBING        CLEAR     52  50  93 W3        29.93R
EVELETH        CLEAR     54  52  94 CALM      29.93S
DULUTH HARBOR  CLEAR     61  55  82 SW7       29.92S
TWO HARBORS    PTCLDY    57  52  82 CALM      29.90S
SILVER BAY     MOCLDY    54  52  94 CALM      29.89S
GRAND MARAIS     N/A     43  41  93 CALM      29.87R
G MARAIS ARPRT CLEAR     54  48  82 W7        29.89S
$$
MNZ029>031-032-039>041-046>048-054>057-064-300500-
   West Central Minnesota

CITY           SKY/WX    TMP DP  RH WIND       PRES   REMARKS
FERGUS FALLS   CLEAR     64  46  52 SE3       29.93S
WHEATON        CLEAR     66  48  52 S3        29.98R
MORRIS         PTCLDY    63  46  55 SW3       29.97R
ALEXANDRIA     CLEAR     57  51  80 S3        29.99R
ELBOW LAKE     FAIR      63  55  76 CALM      29.97R
WADENA         CLEAR     57  52  82 CALM      29.96S
GLENWOOD       CLEAR     63  52  67 S5        29.99S
APPLETON       CLEAR     61  48  63 CALM      29.98R
ORTONVILLE     PTCLDY    64  46  52 CALM      29.98R
MADISON        CLEAR     63  46  55 SW8       29.99R
WILLMAR        FAIR      61  54  77 CALM      30.00S
$$
MNZ033>034-036-042>043-049>051-058-059-300500-
   Central Minnesota

CITY           SKY/WX    TMP DP  RH WIND       PRES   REMARKS
ST CLOUD       CLEAR     58  55  90 CALM      29.98R
SAUK CENTRE    FAIR      56  50  80 CALM      29.99R
PAYNESVILLE    CLEAR     57  52  82 CALM      29.99R
AITKIN         CLEAR     54  48  82 CALM      29.95S
PINE RIVER     CLEAR     54  54 100 CALM      29.99S
BRAINERD       CLEAR     54  52  93 S3        29.97R
STAPLES        CLEAR     54  54 100 CALM      29.97S
LONG PRAIRIE   FAIR      55  54  94 CALM      29.98S
LITTLE FALLS   CLEAR     55  52  88 CALM      29.98R
LITCHFIELD     CLEAR     61  55  82 CALM      30.00R
BUFFALO        CLEAR     62  56  83 CALM      29.99R
MAPLE LAKE     CLEAR     59  56  90 CALM      30.00R
HUTCHINSON     CLEAR     61  60  96 CALM      30.01R
$$
MNZ037-044-045-052-053-300500-
   East Central Minnesota

CITY           SKY/WX    TMP DP  RH WIND       PRES   REMARKS
PRINCETON        N/A     59  55  88 CALM      29.98R
MORA           CLEAR     55  52  88 CALM      29.99R
CAMBRIDGE      PTCLDY    61  52  72 CALM      29.96R
RUSH CITY      MOCLDY    57  55  91 CALM      29.98R
MOOSE LAKE     MOCLDY    54  52  94 SW3       29.94R
HINCKLEY       FAIR      57  55  94 CALM      29.97R
CLOQUET        CLEAR     59  52  77 W6        29.94S
MCGREGOR       CLEAR     59  52  77 SW3       29.96R
$$
MNZ071>073-080-081-089-090-097-098-300500-
   Southwest Minnesota

CITY           SKY/WX    TMP DP  RH WIND       PRES   REMARKS
MONTEVIDEO     CLEAR     68  43  40 W5        30.00S
GRANITE FALLS  CLEAR     64  50  61 SW3       30.01R
CANBY          CLEAR     65  53  65 SW6       30.02R
MARSHALL       PTCLDY    65  51  60 SW8       30.01R
REDWOOD FALLS  CLEAR     64  48  56 E3        29.99R
OLIVIA         CLEAR     59  46  63 CALM      29.99S
PIPESTONE      CLEAR     63  54  72 SW3       30.04S
WINDOM         CLEAR     64  52  63 CALM      30.04R
WORTHINGTON    CLEAR     65  51  60 SW5       30.05R
JACKSON        CLEAR     63  52  67 CALM      30.05R
TRACY          CLEAR     64  53  66 SW6       30.02S
SLAYTON        CLEAR     62  52  70 SW7       30.05S
$$
MNZ065>067-074>077-082>085-091>093-300500-
   South Central Minnesota

CITY           SKY/WX    TMP DP  RH WIND       PRES   REMARKS
MANKATO        CLEAR     66  57  72 CALM      30.01R
NEW ULM        CLEAR     63  52  67 SW6       30.01R
ST JAMES       CLEAR     59  50  72 SW7       30.03R
FAIRMONT       CLEAR     64  46  52 W6        30.02S
GLENCOE        CLEAR     64  62  96 CALM      29.99R
FARIBAULT      CLEAR     61  59  94 CALM      30.01R
OWATONNA       CLEAR     63  57  82 CALM      30.02R
WASECA         CLEAR     59  55  88 CALM      30.03R
ALBERT LEA     CLEAR     63  55  77 CALM      30.02R
$$
MNZ078>079-086>088-094>096-300500-
   Southeast Minnesota

CITY           SKY/WX    TMP DP  RH WIND       PRES   REMARKS
ROCHESTER      CLEAR     64  60  87 W5        30.02R
RED WING       CLEAR     61  57  88 CALM      29.97R
STANTON        CLEAR     62  58  86 S3        29.98S
DODGE CENTER   CLEAR     61  55  82 W5        30.02R
WINONA         PTCLDY    63  61  94 CALM      29.98S
AUSTIN         CLEAR     61  55  82 CALM      30.01R
PRESTON        CLEAR     64  58  81 SW5       30.02R
$$
ABBREVIATIONS USED IN REMARKS
   TC - TEMPERATURES IN CELSIUS
  WCI - WIND CHILL INDEX
   HX - HEAT INDEX
  VSB - VISIBILITY
$$




USA.gov is the U.S. government's official web portal to all federal, state and local government web resources and services.